Location: Newark
(38.6492°N, 88.9193°W)
Time: 12:37:25
(UTC+00:00)

LightSail 2 - Pass Details

Date: 18 November 2019
Orbit: 696 x 730 km, 24.0° (Epoch: 14 December)

Event Time Altitude Azimuth Distance (km) Brightness Sun altitude
Exits shadow 10:25:08 11° 187° (S) 2,112 7.5 -26.4°
Drops below altitude 10° 10:26:21 10° 174° (S) 2,205 7.8 -26.2°
Sets 10:30:36 0° 141° (SE) 3,129 9.1 -25.3°
